[[{"header":{"parameterUnit":"m.s-1","parameterCategory":1,"la1":30.2991,"la2":30.254,"lo1":-89.0895,"lo2":-89.0444,"dy":0.0017,"dx":0.0017,"nx":28,"ny":28,"refTime":"2024-05-18T03:00:00:Z","depth":0,"parameterNumber":2,"parameterNumberName":"U-component_of_WINDS"},"data":[0,0,0,0,0,0,0,0,0,0,0,0,0,0,0,0,0,0,0,0,0,0,0,0,0,0,0,0,0,0,0,0,0,0,0,0,0,0,0,0,0,0,0,0,0,0,0,0,0,0,0,0,0,0,0,0,0,0,1.3596,1.3597,0,1.3663,1.3663,1.3664,1.368,1.3679,1.3679,1.3678,1.3749,1.3751,1.3753,0,0,0,0,0,0,0,0,0,0,0,0,0,1.3487,1.3489,1.3596,1.3597,1.3598,1.3663,1.3664,1.3664,1.368,1.3679,1.3679,1.3678,1.3748,1.3751,1.3754,0,0,0,0,0,0,0,0,0,0,0,0,0,1.3542,1.3489,1.3596,1.3613,1.3616,1.3662,1.3664,1.3665,1.368,1.3679,1.3679,1.3678,1.3747,1.3751,1.3754,1.3789,0,0,1.3765,1.3766,0,0,0,0,0,0,0,0,1.3539,1.3546,1.361,1.3612,1.3615,1.3662,1.3651,1.3706,1.368,1.3656,1.3678,1.3678,1.3721,1.3726,1.374,1.3792,1.3795,1.3765,1.3767,1.3768,1.3769,0,0,0,0,0,0,0,1.3535,1.3543,1.3623,1.3611,1.3614,1.3619,1.3626,1.3661,1.3691,1.3658,1.3659,1.3666,1.3722,1.3737,1.3742,1.3796,1.3765,1.3768,1.377,1.3771,1.3883,1.3884,0,0,0,0,0,0,1.3528,1.354,1.3621,1.3625,1.3574,1.3622,1.363,1.3648,1.3691,1.3697,1.3667,1.3667,1.3731,1.3738,1.3745,1.379,1.3768,1.3772,1.3774,1.3882,1.3884,1.3884,0,0,0,0,0,0,1.3525,1.3535,1.3618,1.3583,1.3594,1.3624,1.3645,1.3649,1.3664,1.3698,1.3704,1.3677,1.3731,1.374,1.3778,1.3793,1.3773,1.3776,1.3881,1.3883,1.3884,1.388,0,0,0,0,0,0,1.3522,1.3534,1.3546,1.3583,1.3595,1.3649,1.3645,1.3651,1.367,1.3671,1.3708,1.3714,1.3731,1.3773,1.3782,1.3797,1.3779,1.388,1.3882,1.3884,1.3879,1.3881,1.3883,0,0,0,0,0,1.3518,1.3543,1.3547,1.3556,1.3612,1.365,1.3657,1.3676,1.3671,1.3685,1.3707,1.3713,1.379,1.3777,1.3787,1.3803,1.3879,1.3881,1.3883,1.3878,1.3881,1.3883,0,0,0,0,0,0,1.3507,1.3548,1.3553,1.359,1.3616,1.3652,1.367,1.3677,1.3706,1.3706,1.3728,1.3737,1.3774,1.3793,1.3778,1.3841,1.3835,1.3839,1.3827,1.383,1.3832,1.3827,1.3782,0,0,0,0,0,1.3509,1.3536,1.357,1.3599,1.3612,1.3639,1.3656,1.3668,1.3697,1.3709,1.3733,1.3762,1.3793,1.3812,1.3842,1.3882,1.3892,1.3899,1.3901,1.3902,1.3905,1.393,1.3934,1.3891,1.3891,1.3891,0,0,1.3513,1.3539,1.3554,1.3598,1.362,1.3648,1.3648,1.3678,1.37,1.3713,1.3751,1.3771,1.3804,1.3844,1.3863,1.386,1.3919,1.3905,1.3905,1.3908,1.3932,1.3936,1.394,1.3893,1.3892,1.3892,0,0,1.3536,1.3557,1.3584,1.3607,1.364,1.3658,1.3664,1.37,1.3713,1.3752,1.3763,1.379,1.3842,1.3866,1.3885,1.3919,1.3926,1.3928,1.3938,1.3962,1.3965,1.3968,1.3981,1.3986,1.3931,1.3931,1.3931,0,1.3537,1.3579,1.3598,1.3627,1.3647,1.3661,1.369,1.3711,1.3752,1.3766,1.3763,1.383,1.3854,1.39,1.3908,1.3923,1.3933,1.3924,1.3963,1.3966,1.3969,1.3982,1.3987,1.3931,1.3931,1.3931,1.3931,0,1.358,1.3609,1.3627,1.3667,1.3689,1.3718,1.3743,1.3763,1.3774,1.3792,1.3833,1.3862,1.3899,1.3911,1.3921,1.3959,1.3957,1.3958,1.3952,1.3973,1.3986,1.3991,1.3932,1.3932,1.3932,1.3931,0,0,1.3596,1.3647,1.3653,1.3672,1.3711,1.3734,1.3765,1.3801,1.3819,1.3848,1.3875,1.392,1.3922,1.3943,1.3957,1.3978,1.4004,1.3977,1.3978,1.3982,1.405,1.4049,1.4055,1.401,1.4011,1.4012,1.4048,0,1.3624,1.3678,1.3696,1.3742,1.377,1.3785,1.3812,1.3839,1.3858,1.3886,1.3908,1.3939,1.3939,1.3952,1.3973,1.3997,1.4019,1.3994,1.4037,1.4038,1.4028,1.4061,1.406,1.4092,1.4053,1.4053,1.4054,0,1.3663,1.3692,1.374,1.3777,1.3789,1.3813,1.3849,1.3875,1.3907,1.392,1.3945,1.3957,1.3992,1.3984,1.4034,1.4017,1.4036,1.405,1.4052,1.4057,1.4047,1.4068,1.4103,1.4108,1.4062,1.4061,1.4061,0,1.3671,1.3723,1.3759,1.3774,1.3818,1.3834,1.3854,1.3885,1.3906,1.3938,1.3952,1.3987,1.4006,1.4034,1.4057,1.4049,1.4105,1.4099,1.4118,1.4117,1.4129,1.4128,1.4168,1.414,1.414,1.414,1.4139,0,1.3701,1.373,1.3763,1.3785,1.3819,1.3841,1.3875,1.3895,1.3923,1.3951,1.3966,1.3992,1.402,1.405,1.4068,1.4107,1.4116,1.4128,1.4133,1.4127,1.4126,1.414,1.4139,1.4141,1.4141,1.414,1.414,0,1.3715,1.3739,1.3779,1.3817,1.3828,1.3851,1.3884,1.3907,1.3927,1.3962,1.3972,1.4004,1.404,1.4066,1.4113,1.4125,1.4168,1.4172,1.4156,1.4159,1.4177,1.4175,1.4228,1.4237,1.4202,1.4202,1.4202,0,1.3733,1.3756,1.3796,1.3815,1.3834,1.3865,1.3887,1.391,1.3932,1.3972,1.3991,1.4028,1.4059,1.4117,1.4145,1.4182,1.4188,1.4204,1.4193,1.4188,1.4189,1.4188,1.4191,1.4206,1.4206,1.4206,1.4206,0,1.3761,1.3772,1.3802,1.3837,1.3862,1.389,1.3919,1.3934,1.3963,1.3988,1.4025,1.4049,1.4097,1.4135,1.4175,1.4196,1.4207,1.4209,1.4216,1.4211,1.4201,1.4208,1.4161,1.4208,1.4208,1.4208,1.4208,1.4208,1.3779,1.3801,1.3833,1.3866,1.389,1.3917,1.3941,1.3964,1.3995,1.4036,1.4049,1.4088,1.4122,1.4176,1.4198,1.4231,1.423,1.4239,1.4241,1.4243,1.4244,1.4196,1.4238,1.4238,1.4238,1.4238,1.4238,0,1.381,1.3831,1.3862,1.3901,1.3928,1.3935,1.3968,1.399,1.4024,1.4055,1.4085,1.4129,1.4166,1.4198,1.4237,1.4256,1.4262,1.4266,1.4265,1.427,1.4242,1.4233,1.426,1.426,1.426,1.426,1.426,1.426,1.3829,1.3866,1.3881,1.3931,1.3953,1.3991,1.4009,1.4035,1.4059,1.4107,1.4138,1.4158,1.419,1.4232,1.4267,1.4275,1.4289,1.4292,1.4302,1.4275,1.4272,1.4269,1.4261,1.4295,1.4295,1.4328,1.4328,1.4328]},{"header":{"parameterUnit":"m.s-1","parameterCategory":1,"la1":30.2991,"la2":30.254,"lo1":-89.0895,"lo2":-89.0444,"dy":0.0017,"dx":0.0017,"nx":28,"ny":28,"refTime":"2024-05-18T03:00:00:Z","depth":0,"parameterNumber":3,"parameterNumberName":"V-component_of_WINDS"},"data":[0,0,0,0,0,0,0,0,0,0,0,0,0,0,0,0,0,0,0,0,0,0,0,0,0,0,0,0,0,0,0,0,0,0,0,0,0,0,0,0,0,0,0,0,0,0,0,0,0,0,0,0,0,0,0,0,0,0,-1.1845,-1.1846,0,-1.1877,-1.1877,-1.1878,-1.1878,-1.1878,-1.1877,-1.1877,-1.1911,-1.1912,-1.1914,0,0,0,0,0,0,0,0,0,0,0,0,0,-1.1787,-1.1788,-1.1845,-1.1846,-1.1846,-1.1877,-1.1877,-1.1878,-1.1878,-1.1877,-1.1877,-1.1877,-1.1911,-1.1912,-1.1914,0,0,0,0,0,0,0,0,0,0,0,0,0,-1.1815,-1.1789,-1.1845,-1.185,-1.1851,-1.1877,-1.1877,-1.1878,-1.1878,-1.1877,-1.1877,-1.1876,-1.191,-1.1912,-1.1914,-1.1938,0,0,-1.192,-1.1921,0,0,0,0,0,0,0,0,-1.1813,-1.1817,-1.1849,-1.185,-1.185,-1.1873,-1.1869,-1.1898,-1.1878,-1.1868,-1.1877,-1.1876,-1.1899,-1.1902,-1.1909,-1.194,-1.1941,-1.192,-1.1921,-1.1922,-1.1923,0,0,0,0,0,0,0,-1.1812,-1.1816,-1.1858,-1.1849,-1.185,-1.1851,-1.1854,-1.1875,-1.1886,-1.1869,-1.1869,-1.1872,-1.1899,-1.1907,-1.191,-1.1942,-1.192,-1.1922,-1.1923,-1.1924,-1.1994,-1.1994,0,0,0,0,0,0,-1.1808,-1.1814,-1.1857,-1.1859,-1.183,-1.1853,-1.1856,-1.1866,-1.1886,-1.1889,-1.1873,-1.1872,-1.1904,-1.1908,-1.1911,-1.1941,-1.1922,-1.1924,-1.1925,-1.1993,-1.1994,-1.1995,0,0,0,0,0,0,-1.1807,-1.1812,-1.1856,-1.1837,-1.1842,-1.1854,-1.1865,-1.1867,-1.1875,-1.1889,-1.1892,-1.1879,-1.1904,-1.1908,-1.1931,-1.1942,-1.1925,-1.1926,-1.1992,-1.1993,-1.1994,-1.2,0,0,0,0,0,0,-1.1805,-1.1812,-1.1821,-1.1837,-1.1843,-1.1875,-1.1866,-1.1868,-1.1878,-1.1878,-1.1895,-1.1898,-1.1904,-1.1928,-1.1933,-1.1944,-1.1928,-1.1991,-1.1993,-1.1994,-1.1999,-1.2001,-1.2003,0,0,0,0,0,-1.1803,-1.1822,-1.1821,-1.1826,-1.1854,-1.1875,-1.1879,-1.1885,-1.1879,-1.1888,-1.1897,-1.1897,-1.194,-1.1931,-1.1936,-1.1948,-1.1991,-1.1992,-1.1994,-1.1998,-1.2001,-1.2003,0,0,0,0,0,0,-1.1807,-1.1824,-1.1823,-1.1847,-1.186,-1.1875,-1.1887,-1.1888,-1.1903,-1.1902,-1.1909,-1.1913,-1.1936,-1.1944,-1.1933,-1.1973,-1.1965,-1.1967,-1.1966,-1.1969,-1.1971,-1.1969,-1.193,0,0,0,0,0,-1.1811,-1.1826,-1.1839,-1.1859,-1.1865,-1.1875,-1.1884,-1.1888,-1.1901,-1.1907,-1.1918,-1.1932,-1.1948,-1.1959,-1.1975,-1.2,-1.2004,-1.2011,-1.2013,-1.2015,-1.2017,-1.2032,-1.2035,-1.2,-1.2,-1.2,0,0,-1.1818,-1.1829,-1.1838,-1.186,-1.187,-1.1886,-1.188,-1.1897,-1.1909,-1.191,-1.1932,-1.194,-1.1956,-1.198,-1.1992,-1.1988,-1.2028,-1.2017,-1.2018,-1.202,-1.2034,-1.2037,-1.204,-1.2001,-1.2001,-1.2001,0,0,-1.184,-1.185,-1.1867,-1.1877,-1.1892,-1.1899,-1.1903,-1.1918,-1.1924,-1.1946,-1.1947,-1.1962,-1.199,-1.2001,-1.2011,-1.2036,-1.2037,-1.2041,-1.2052,-1.2066,-1.2069,-1.2072,-1.2081,-1.2085,-1.2044,-1.2044,-1.2044,0,-1.1848,-1.1872,-1.1876,-1.1893,-1.1903,-1.1904,-1.1922,-1.1932,-1.1951,-1.1958,-1.1954,-1.1989,-1.2,-1.2027,-1.2033,-1.2041,-1.2046,-1.204,-1.2068,-1.2071,-1.2073,-1.2083,-1.2086,-1.2044,-1.2044,-1.2044,-1.2044,0,-1.1881,-1.1897,-1.1909,-1.1928,-1.1939,-1.1956,-1.1964,-1.1975,-1.1977,-1.1984,-1.2007,-1.2019,-1.2038,-1.2045,-1.2047,-1.2072,-1.2069,-1.2066,-1.2059,-1.2077,-1.2086,-1.2089,-1.2045,-1.2045,-1.2045,-1.2044,0,0,-1.1907,-1.1927,-1.1932,-1.194,-1.1956,-1.1969,-1.1987,-1.2004,-1.2013,-1.2027,-1.2042,-1.2066,-1.2063,-1.2074,-1.2078,-1.209,-1.211,-1.2086,-1.2086,-1.209,-1.2139,-1.2141,-1.2145,-1.211,-1.2111,-1.2111,-1.2137,0,-1.1931,-1.1962,-1.1966,-1.1994,-1.2009,-1.2009,-1.2025,-1.2037,-1.2044,-1.2058,-1.2066,-1.2083,-1.2077,-1.2084,-1.2096,-1.2105,-1.212,-1.2103,-1.2125,-1.2126,-1.2122,-1.215,-1.2152,-1.2176,-1.2141,-1.2142,-1.2142,0,-1.1964,-1.1977,-1.2006,-1.202,-1.2026,-1.204,-1.2056,-1.207,-1.2084,-1.2088,-1.2099,-1.2102,-1.2121,-1.2112,-1.2138,-1.2127,-1.2136,-1.2142,-1.2143,-1.2146,-1.2135,-1.2154,-1.2184,-1.2188,-1.2147,-1.2147,-1.2147,0,-1.1981,-1.2006,-1.2026,-1.2033,-1.205,-1.206,-1.2067,-1.208,-1.209,-1.2105,-1.2112,-1.2128,-1.2138,-1.2151,-1.2158,-1.2151,-1.2184,-1.2176,-1.2189,-1.2189,-1.2196,-1.2196,-1.2229,-1.2201,-1.2201,-1.2201,-1.2201,0,-1.2008,-1.2025,-1.2034,-1.2047,-1.2066,-1.2071,-1.2091,-1.2099,-1.211,-1.2125,-1.2126,-1.214,-1.2148,-1.2163,-1.2169,-1.219,-1.2194,-1.2199,-1.22,-1.2199,-1.2198,-1.2205,-1.2204,-1.2202,-1.2202,-1.2202,-1.2202,0,-1.203,-1.2037,-1.2059,-1.2073,-1.2076,-1.209,-1.2103,-1.2115,-1.2121,-1.214,-1.2144,-1.2155,-1.2173,-1.2181,-1.2203,-1.2207,-1.2231,-1.2231,-1.2226,-1.2227,-1.224,-1.2239,-1.2279,-1.2285,-1.2253,-1.2253,-1.2253,0,-1.2047,-1.2061,-1.2075,-1.2085,-1.2092,-1.2108,-1.2118,-1.2123,-1.2134,-1.215,-1.2161,-1.2178,-1.2193,-1.2221,-1.2231,-1.2248,-1.2249,-1.2262,-1.2252,-1.225,-1.225,-1.2249,-1.2251,-1.2264,-1.2265,-1.2265,-1.2265,0,-1.2077,-1.2079,-1.2093,-1.2108,-1.212,-1.2133,-1.2145,-1.2152,-1.216,-1.2172,-1.219,-1.2201,-1.2223,-1.2241,-1.2258,-1.2267,-1.2268,-1.2268,-1.2272,-1.2271,-1.2268,-1.227,-1.2232,-1.2267,-1.2267,-1.2267,-1.2267,-1.2267,-1.2098,-1.211,-1.2122,-1.2137,-1.2147,-1.2158,-1.217,-1.2178,-1.2192,-1.221,-1.2213,-1.2232,-1.2245,-1.2269,-1.2278,-1.2293,-1.229,-1.2296,-1.2298,-1.2299,-1.23,-1.2265,-1.2297,-1.2297,-1.2296,-1.2296,-1.2296,0,-1.2128,-1.2136,-1.215,-1.2166,-1.2179,-1.2177,-1.219,-1.2201,-1.2217,-1.2229,-1.2243,-1.2263,-1.228,-1.2291,-1.2309,-1.2319,-1.232,-1.2324,-1.2323,-1.2325,-1.2302,-1.2296,-1.2323,-1.2323,-1.2323,-1.2323,-1.2323,-1.2323,-1.2146,-1.2165,-1.2169,-1.2194,-1.2201,-1.2219,-1.2227,-1.2238,-1.2247,-1.2269,-1.2283,-1.229,-1.2302,-1.232,-1.2336,-1.2338,-1.2345,-1.2349,-1.2352,-1.233,-1.2327,-1.2324,-1.232,-1.235,-1.235,-1.2374,-1.2374,-1.2375]}]]